This is the latest recevied weather packets stored in our database for station/object OK1PMP-6. If no packets are shown the sender has not sent any weather packets the latest 10 day(s).
| Time | Temp. | Humidity | Pressure | Rain* | Wind** | Luminosity | Snow |
|---|---|---|---|---|---|---|---|
| 1777285214 | 16.67° C | 30% | 1026.9 hPa | 0 mm | - | 713 W/m² | - |
| 1777284314 | 16.67° C | 31% | 1026.8 hPa | 0 mm | - | 686 W/m² | - |
| 1777281611 | 15.56° C | 31% | 1027.3 hPa | 0 mm | - | 679 W/m² | - |
| 1777280712 | 15.56° C | 34% | 1027.7 hPa | 0 mm | - | 655 W/m² | - |
| 1777279812 | 15° C | 35% | 1027.8 hPa | 0 mm | - | 638 W/m² | - |
| 1777278938 | 13.33° C | 40% | 1027.7 hPa | 0 mm | - | 615 W/m² | - |
| 1777278008 | 12.78° C | 42% | 1027.7 hPa | 0 mm | - | 589 W/m² | - |
| 1777277107 | 11.67° C | 46% | 1027.9 hPa | 0 mm | - | 561 W/m² | - |
| 1777276200 | 10.56° C | 47% | 1028 hPa | 0 mm | - | 530 W/m² | - |
| 1777275300 | 10° C | 48% | 1027.9 hPa | 0 mm | - | 493 W/m² | - |
| 1777274401 | 9.44° C | 48% | 1027.8 hPa | 0 mm | - | 456 W/m² | - |
| 1777273501 | 8.89° C | 50% | 1027.8 hPa | 0 mm | - | 420 W/m² | - |
| 1777272611 | 7.78° C | 56% | 1028.1 hPa | 0 mm | - | 379 W/m² | - |
| 1777271703 | 6.67° C | 56% | 1028.1 hPa | 0 mm | - | 339 W/m² | - |
| 1777270805 | 5.56° C | 64% | 1027.9 hPa | 0 mm | - | 292 W/m² | - |
| 1777269903 | 3.89° C | 73% | 1027.9 hPa | 0 mm | - | 247 W/m² | - |
| 1777269013 | 2.22° C | 76% | 1028.1 hPa | 0 mm | - | 204 W/m² | - |
| 1777268100 | 1.11° C | 80% | 1028.1 hPa | 0 mm | - | 96 W/m² | - |
| 1777267201 | 0.56° C | 80% | 1028.1 hPa | 0 mm | - | 134 W/m² | - |
| 1777266307 | -1.67° C | 83% | 1028 hPa | 0 mm | - | 98 W/m² | - |
| 1777265400 | -2.78° C | 83% | 1028 hPa | 0 mm | - | 51 W/m² | - |
| 1777264502 | -2.78° C | 83% | 1027.8 hPa | 0 mm | - | 24 W/m² | - |
| 1777263602 | -2.78° C | 83% | 1027.6 hPa | 0 mm | - | 18 W/m² | - |
| 1777262698 | -2.78° C | 85% | 1027.5 hPa | 0 mm | - | 10 W/m² | - |
| 1777261798 | -2.78° C | 87% | 1027.7 hPa | 0 mm | - | 4 W/m² | - |
* Rain latest hour (hover to see other rain measurements)
** Current wind speed in m/s (hover to see current wind gust speed)